Weather in Russkaya Lyazhmar'

Russia / Mari El Republic     56°53′03″N   49°29′40″E
temp.,
°C
wind,
m/s
gust,
m/s
humid.,
%
clouds,
%
prec.,
mm/h
press.,
hPa
HPBL,
m
1 march, mon
mon100:00−21nnw349931 0.0 101737
03:00−22nnw349715 0.0 101937
06:00−23nnw23960 0.0 102020
09:00−19nw11920 0.0 102175
12:00−15wsw238716 0.0 1020248
15:00−13wsw359115 0.0 1018275
18:00−13sw4895100 0.0 1016190
21:00−11ssw51094100 0.0 1013294
2 march, tue
tue200:00−9sw71294100 0.6 1008421
03:00−6sw71394100 2.0 1004543
06:00−3sw71495100 1.0 1000554
09:000wsw61199100 2.1 998609
12:000w5999100 0.9 995563
15:000w4897100 1.7 995569
18:00−2wnw61287100 0.6 995468
21:00−3wnw7139294 0.6 997509
3 march, wed
wed300:00−5wnw6139399 0.6 997519
03:00−6wnw6129595 0.6 998383
06:00−6wnw61194100 0.2 998426
09:00−6nw61093100 0.5 1000526
12:00−5nw71088100 0.2 1001769
15:00−5nw6987100 0.3 1002865
18:00−8wnw5119299 0.1 1003322
21:00−8w5119394 0.1 1004427
4 march, thu
thu400:00−11w479671 0.1 1003126
03:00−9wsw499585 0.3 1002254
06:00−9w489695 0.1 1001210
09:00−8wsw489592 0.1 1000302
12:00−4ssw598999 0.0 997740
15:00−3ssw71295100 0.6 994908
18:00−2sw71495100 1.3 991801
21:00−1wsw61291100 1.5 989759
5 march, fri
fri500:00−1w71295100 0.9 988780
03:00−7w7148795 0.9 989755
06:00−8wnw9159198 0.2 994804
09:00−10nw8148799 0.3 999607
12:00−9wnw6108872 0.0 1003699
15:00−8wnw6118480 0.0 1006752
18:00−11w49910 0.0 1009195
21:00−12wnw339644 0.1 101169